ES8TJM-10 Weather Reports


Display with metric or nautical units.
time (UTC)temp
F
wind
direction
speed
MPH
gust
MPH
rain 1hr
in
rain 24hr
in
rain mn
in
humidity
%
barometer
mb
20260506072704 50 332 7.0 9.0 0.00 0.00 0.00 37 1014.3
20260506072017 49 345 7.0 9.0 0.00 0.00 0.00 36 1014.2
20260506071118 50 336 8.0 10.0 0.00 0.00 0.00 37 1014.1
20260506061803 49 59 5.0 8.0 0.00 0.00 0.00 62 1013.8
20260506060904 48 30 3.0 5.0 0.00 0.00 0.00 67 1013.9
20260506050904 45 349 3.0 4.0 0.00 0.00 0.00 77 1013.5
20260506050217 45 355 0.0 2.0 0.00 0.00 0.00 79 1013.5
20260506044503 41 0 0.0 0.0 0.00 0.00 0.00 83 1013.5
20260506043603 40 45 0.0 1.0 0.00 0.00 0.00 85 1013.5
20260506042917 38 0 0.0 0.0 0.00 0.00 0.00 86 1013.4
20260506041803 36 92 1.0 2.0 0.00 0.00 0.00 82 1013.2
20260506040903 35 133 1.0 1.0 0.00 0.00 0.00 85 1013.1
20260506040004 34 137 1.0 2.0 0.00 0.00 0.00 87 1013.0
20260506035618 34 150 1.0 2.0 0.00 0.00 0.00 87 1013.0
20260506034503 32 180 1.0 2.0 0.00 0.00 0.00 89 1012.9
20260506033817 32 180 1.0 2.0 0.00 0.00 0.00 90 1012.8
20260506032703 31 164 0.0 2.0 0.00 0.00 0.00 90 1012.5
20260506031803 31 84 2.0 3.0 0.00 0.00 0.00 90 1012.5
20260506030903 30 71 2.0 3.0 0.00 0.00 0.00 89 1012.4
20260506030004 29 41 1.0 2.0 0.00 0.00 0.00 90 1012.4
20260506025618 29 25 1.0 2.0 0.00 0.00 0.00 90 1012.2
20260506024503 28 40 2.0 2.0 0.00 0.00 0.00 85 1012.2
20260506023603 28 33 1.0 2.0 0.00 0.00 0.00 85 1012.2
20260506022703 28 44 1.0 2.0 0.00 0.00 0.00 89 1012.2
20260506022017 29 45 0.0 2.0 0.00 0.00 0.00 89 1012.1
20260506020903 29 208 3.0 4.0 0.00 0.00 0.00 89 1011.9
20260506020004 29 249 4.0 5.0 0.00 0.00 0.00 89 1011.8
20260506015403 28 236 4.0 5.0 0.00 0.00 0.00 84 1011.8
20260506014503 28 219 3.0 4.0 0.00 0.00 0.00 84 1011.8
20260506013603 28 181 2.0 3.0 0.00 0.00 0.00 88 1011.7
20260506012704 28 0 0.0 0.0 0.00 0.00 0.00 84 1011.7
20260506012017 28 0 0.0 0.0 0.00 0.00 0.00 84 1011.6
20260506010903 28 90 2.0 3.0 0.00 0.00 0.00 88 1011.5
20260506010003 29 71 3.0 3.0 0.00 0.00 0.00 88 1011.5
20260506005403 29 50 3.0 3.0 0.00 0.00 0.00 88 1011.3
20260506004504 29 90 0.0 2.0 0.00 0.00 0.00 87 1011.4
20260506003818 29 90 0.0 1.0 0.00 0.00 0.00 87 1011.2
20260506002917 29 66 2.0 3.0 0.00 0.00 0.00 87 1011.1
20260506001803 29 180 0.0 1.0 0.00 0.00 0.00 86 1011.2
20260506001118 30 180 1.0 2.0 0.00 0.00 0.00 86 1011.0
20260506000004 30 93 1.0 2.0 0.00 0.00 0.00 85 1010.9
20260505235403 30 84 2.0 3.0 0.00 0.00 0.00 85 1011.0
20260505234503 31 53 3.0 4.0 0.00 0.00 0.00 84 1010.8
20260505233603 31 225 1.0 2.0 0.00 0.00 0.00 83 1010.9
20260505232703 31 0 0.0 0.0 0.00 0.00 0.00 82 1010.8
20260505231803 31 0 0.0 0.0 0.00 0.00 0.00 82 1010.8
20260505230903 32 0 0.0 0.0 0.00 0.00 0.00 81 1010.9
20260505230004 32 0 0.0 0.0 0.00 0.00 0.00 80 1010.9
20260505225403 32 225 0.0 2.0 0.00 0.00 0.00 79 1010.9
20260505224718 33 258 2.0 2.0 0.00 0.00 0.00 79 1010.8
20260505223603 33 284 2.0 3.0 0.00 0.01 0.00 79 1010.9
20260505222704 33 315 2.0 3.0 0.00 0.01 0.00 79 1010.8
20260505221803 34 315 2.0 3.0 0.00 0.01 0.00 79 1010.8
20260505220903 34 315 3.0 3.0 0.00 0.01 0.00 78 1010.8
20260505220218 34 315 3.0 3.0 0.00 0.01 0.00 77 1010.8
20260505215403 35 315 1.0 2.0 0.00 0.01 0.00 77 1010.7
20260505214503 36 284 3.0 4.0 0.00 0.01 0.00 76 1010.6
20260505213603 36 270 3.0 4.0 0.00 0.01 0.00 75 1010.5
20260505212703 36 270 2.0 3.0 0.00 0.01 0.00 72 1010.4
20260505211804 36 306 1.0 2.0 0.00 0.01 0.00 68 1010.5
20260505210903 36 315 2.0 3.0 0.00 0.01 0.00 67 1010.4
20260505210005 36 315 3.0 4.0 0.00 0.01 0.00 66 1010.5
20260505205403 36 315 2.0 3.0 0.00 0.01 0.01 65 1010.4
20260505204503 36 315 2.0 3.0 0.00 0.01 0.01 65 1010.3
20260505203603 36 324 2.0 2.0 0.00 0.01 0.01 65 1010.2
20260505202703 36 340 2.0 2.0 0.00 0.01 0.01 64 1010.2
20260505201803 37 315 2.0 3.0 0.00 0.01 0.01 60 1010.1
20260505200903 38 315 3.0 3.0 0.00 0.01 0.01 63 1010.1
20260505200004 38 311 3.0 4.0 0.00 0.01 0.01 61 1009.8
20260505195617 39 311 4.0 4.0 0.00 0.01 0.01 58 1009.8
20260505194503 41 315 4.0 4.0 0.00 0.01 0.01 55 1009.7
20260505193603 42 291 3.0 4.0 0.00 0.01 0.01 54 1009.7
20260505192703 42 311 3.0 4.0 0.00 0.01 0.01 52 1009.6
20260505191803 42 312 4.0 4.0 0.00 0.01 0.01 51 1009.7
20260505191118 43 311 3.0 4.0 0.00 0.01 0.01 50 1009.6
20260505190004 43 312 4.0 4.0 0.00 0.01 0.01 49 1009.5
20260505185403 44 315 4.0 4.0 0.00 0.01 0.01 48 1009.4
20260505184503 44 308 4.0 4.0 0.00 0.01 0.01 48 1009.4
20260505183817 44 305 4.0 4.0 0.00 0.01 0.01 47 1009.4
20260505182917 45 312 4.0 5.0 0.00 0.01 0.01 46 1009.4
20260505181803 45 315 5.0 5.0 0.00 0.01 0.01 46 1009.2
20260505180903 46 315 7.0 8.0 0.00 0.01 0.01 47 1009.2
20260505180003 46 318 6.0 9.0 0.00 0.01 0.01 49 1009.1
20260505175619 47 322 7.0 9.0 0.00 0.01 0.01 49 1009.1
20260505174503 47 317 8.0 10.0 0.00 0.01 0.01 50 1009.0
20260505173817 47 319 7.0 10.0 0.00 0.01 0.01 50 1009.0
20260505172703 48 322 9.0 11.0 0.00 0.01 0.01 50 1009.0
20260505171803 48 332 10.0 11.0 0.00 0.01 0.01 49 1009.0
20260505170903 49 327 8.0 11.0 0.00 0.01 0.01 50 1008.8
20260505170004 49 337 12.0 15.0 0.00 0.01 0.01 51 1008.9
20260505165403 49 328 12.0 14.0 0.00 0.01 0.01 51 1008.8
20260505164503 49 317 12.0 15.0 0.00 0.01 0.01 51 1008.8
20260505163603 50 323 12.0 15.0 0.00 0.01 0.01 49 1008.7
20260505162703 51 328 9.0 11.0 0.00 0.01 0.01 51 1008.6
20260505162017 50 319 11.0 15.0 0.00 0.01 0.01 50 1008.6
20260505161117 50 304 13.0 16.0 0.00 0.01 0.01 49 1008.6
20260505152703 51 314 14.0 19.0 0.00 0.01 0.01 50 1008.6
20260505152017 51 310 16.0 19.0 0.00 0.01 0.01 52 1008.5
20260505151117 51 321 15.0 18.0 0.00 0.01 0.01 52 1008.4
20260505124503 53 306 15.0 21.0 0.00 0.01 0.01 51 1007.7
20260505123603 54 311 18.0 22.0 0.00 0.01 0.01 47 1007.5
20260505122703 54 323 16.0 20.0 0.00 0.01 0.01 49 1007.4
20260505121803 53 313 17.0 20.0 0.00 0.01 0.01 49 1007.5
20260505120903 54 295 13.0 18.0 0.00 0.01 0.01 51 1007.4
20260505120004 55 283 14.0 18.0 0.00 0.01 0.01 50 1007.2
20260505115403 56 314 16.0 22.0 0.00 0.01 0.01 49 1007.2
20260505114503 56 270 10.0 16.0 0.00 0.01 0.01 54 1007.1
20260505113603 55 282 11.0 16.0 0.00 0.01 0.01 55 1006.9
20260505112704 56 275 11.0 13.0 0.00 0.01 0.01 55 1006.8
20260505112018 55 232 10.0 12.0 0.00 0.01 0.01 58 1006.8
20260505110903 55 224 11.0 12.0 0.00 0.01 0.01 58 1006.8
20260505110219 54 226 11.0 15.0 0.00 0.01 0.01 59 1006.9
20260505102017 54 240 11.0 13.0 0.00 0.01 0.01 59 1006.7
20260505100903 53 228 11.0 14.0 0.00 0.01 0.01 63 1006.8
20260505100004 53 229 13.0 16.0 0.00 0.01 0.01 63 1006.6
20260505095618 52 225 13.0 16.0 0.00 0.01 0.01 63 1006.6
20260505094503 53 228 12.0 15.0 0.00 0.01 0.01 62 1006.5
20260505093603 52 223 14.0 17.0 0.00 0.01 0.01 62 1006.5
20260505092703 52 231 11.0 14.0 0.00 0.01 0.01 62 1006.5
20260505091803 51 225 14.0 18.0 0.00 0.01 0.01 63 1006.5
20260505090903 52 227 13.0 18.0 0.00 0.01 0.01 61 1006.5
20260505090218 54 234 12.0 15.0 0.00 0.01 0.01 59 1006.2
20260505085403 53 231 12.0 15.0 0.00 0.01 0.01 61 1006.1
20260505084503 53 210 12.0 15.0 0.00 0.01 0.01 63 1006.1
20260505083603 52 212 13.0 15.0 0.00 0.01 0.01 63 1005.9
20260505082703 51 209 13.0 16.0 0.00 0.01 0.01 64 1005.9
20260505081803 53 223 12.0 16.0 0.00 0.01 0.01 64 1006.0
20260505080903 52 226 12.0 13.0 0.00 0.01 0.01 65 1005.9
20260505080217 51 223 12.0 15.0 0.00 0.01 0.01 67 1005.8
20260505075403 51 212 13.0 16.0 0.00 0.01 0.01 67 1006.0
20260505074503 52 215 10.0 13.0 0.00 0.01 0.01 66 1005.8
20260505073603 52 222 12.0 18.0 0.00 0.01 0.01 66 1005.8